Weather reports worldwide

Advertisment
Rodez, France (7552): temperature & dewpoint: 06.12.2018 00:00:00 - 12.12.2018 00:00:00 (CET)Rodez, France (7552): temperature 5cm: 06.12.2018 00:00:00 - 12.12.2018 00:00:00 (CET)Rodez, France (7552): wind speed & gusts: 06.12.2018 00:00:00 - 12.12.2018 00:00:00 (CET)Rodez, France (7552): wind direction: 06.12.2018 00:00:00 - 12.12.2018 00:00:00 (CET)Rodez, France (7552): reduced air pressure: 06.12.2018 00:00:00 - 12.12.2018 00:00:00 (CET)Rodez, France (7552): visibility: 06.12.2018 00:00:00 - 12.12.2018 00:00:00 (CET)Rodez, France (7552): sunshine duration: 06.12.2018 00:00:00 - 12.12.2018 00:00:00 (CET)Rodez, France (7552): precipitation: 06.12.2018 00:00:00 - 12.12.2018 00:00:00 (CET)
Date & Time tt [°C] td [°C] tt 5cm [°C] ff [km/h] ff [kn] fx [km/h] fx [kn] dd ppp [hPa] vv [km] sd [min] rr [mm]
12.12.2018 00:00:00 -1,3 -2,3 -5,5 4 2 7 4 ENE 1023,2 12 0 0,0
11.12.2018 23:00:00 -0,6 -1,4 -4,6 2 1 10 6 S 1022,9 14 0 0,0
11.12.2018 22:00:00 0,2 -1,9 -2,6 4 2 12 7 ENE 1022,6 46 0 0,0
11.12.2018 21:00:00 1,7 -0,6 -3,2 9 5 14 7 E 1022,2 41 0 0,0
11.12.2018 20:00:00 1,3 -1,4 -3,4 3 1 7 4 N 1022,5 56 0 0,0
11.12.2018 19:00:00 1,6 -1,0 -3,1 0 0 5 3 N 1022,4 60 0 0,0
11.12.2018 18:00:00 3,8 -0,8 -0,8 3 1 10 6 ENE 1021,8 60 0 0,0
11.12.2018 17:00:00 5,3 -0,5 3,3 4 2 12 7 NNE 1021,5 48 35 0,0
11.12.2018 16:00:00 7,0 0,4 10,1 5 3 13 7 NNW 1021,3 18 60 0,0
11.12.2018 15:00:00 7,8 0,7 13,0 5 3 11 6 NE 1021,5 41 60 0,0
11.12.2018 14:00:00 6,7 1,0 12,7 7 4 13 7 N 1022,5 16 60 0,0
11.12.2018 13:00:00 4,6 0,0 10,9 4 2 9 5 ENE 1023,7 20 60 0,0
11.12.2018 12:00:00 3,2 3,2 5,6 7 4 11 6 NE 1024,7 20 54 0,0
11.12.2018 11:00:00 1,9 1,9 0,2 4 2 10 5 SE 1025,6 1,8 24 0,0
11.12.2018 10:00:00 -0,6 -0,6 -1,5 6 3 8 5 ESE 1026,2 0,4 23 0,0
11.12.2018 09:00:00 -1,8 -1,8 -2,2 6 3 13 7 SSE 1026,4 0,2 0 0,0
11.12.2018 08:00:00 -1,7 -1,7 -3,4 6 3 11 6 E 1026,6 0,4 0 0,0
11.12.2018 07:00:00 -1,0 -1,0 -1,9 0 0 8 5 N 1026,8 0,2 0 0,0
11.12.2018 06:00:00 -0,3 -0,3 -0,2 3 2 10 5 ESE 1027,5 0,1 0 0,0
11.12.2018 05:00:00 0,6 0,6 -2,1 5 3 12 6 NE 1027,8 0,1 0 0,0
11.12.2018 04:00:00 -0,1 -0,1 -4,2 11 6 15 8 NW 1028,4 7 0 0,0
11.12.2018 03:00:00 -0,3 -0,4 -3,9 0 0 8 4 N 1029,1 0,2 0 0,0
11.12.2018 02:00:00 -0,5 -0,5 -4,9 4 2 6 3 SSW 1029,6 0,3 0 0,0
11.12.2018 01:00:00 1,3 1,2 -4,3 3 2 9 5 ENE 1029,3 0,2 0 0,0
11.12.2018 00:00:00 1,8 1,8 -2,8 8 4 14 7 WNW 1029,7 13 0 0,0
10.12.2018 23:00:00 1,9 1,9 -1,8 10 6 13 7 WNW 1030,1 12 0 0,0
10.12.2018 22:00:00 0,9 0,6 -1,7 12 6 16 9 WNW 1030,8 10 0 0,0
10.12.2018 21:00:00 2,4 2,1 -0,6 9 5 14 8 WNW 1030,9 17 0 0,0
10.12.2018 20:00:00 2,6 1,6 0,1 12 6 17 9 NW 1031,1 20 0 0,0
10.12.2018 19:00:00 3,1 1,9 1,6 14 7 19 11 WNW 1030,8 43 0 0,0
10.12.2018 18:00:00 4,3 1,7 3,4 15 8 20 11 WNW 1030,6 60 0 0,0
10.12.2018 17:00:00 4,8 1,5 4,0 16 8 31 17 WNW 1030,5 53 44 0,0
10.12.2018 16:00:00 6,9 2,4 8,4 22 12 42 23 WNW 1029,9 22 60 0,0
10.12.2018 15:00:00 7,5 3,0 8,8 27 14 43 23 WNW 1030,0 22 60 0,0
10.12.2018 14:00:00 6,8 2,5 7,8 26 14 46 25 WNW 1030,6 25 49 0,0
10.12.2018 13:00:00 7,6 2,9 7,6 32 18 45 24 WNW 1031,0 28 48 0,0
10.12.2018 12:00:00 6,3 3,3 7,2 25 13 36 19 WNW 1031,9 31 40 0,0
10.12.2018 11:00:00 6,3 4,6 5,9 24 13 36 19 WNW 1032,2 20 30 0,0
10.12.2018 10:00:00 5,4 4,0 4,7 26 14 39 21 WNW 1032,5 20 1 0,0
10.12.2018 09:00:00 4,8 3,8 4,1 19 10 40 22 WNW 1032,2 19 3 0,0
10.12.2018 08:00:00 5,2 4,0 4,7 26 14 42 23 WNW 1031,4 19 0 0,0
10.12.2018 07:00:00 5,2 4,0 4,7 26 14 42 23 WNW 1031,0 19 0 0,0
10.12.2018 06:00:00 5,8 4,6 5,3 25 14 40 21 WNW 1030,8 16 0 0,0
10.12.2018 05:00:00 5,9 4,7 5,3 25 14 46 25 WNW 1031,0 17 0 0,0
10.12.2018 04:00:00 6,0 4,6 5,5 27 15 44 24 W 1030,9 16 0 0,0
10.12.2018 03:00:00 6,1 4,7 5,4 27 14 46 25 W 1031,0 7 0 0,2
10.12.2018 02:00:00 6,4 4,9 5,9 29 16 44 24 W 1030,8 17 0 0,0
10.12.2018 01:00:00 6,5 5,0 5,9 28 15 49 26 W 1030,7 17 0 0,0
10.12.2018 00:00:00 6,5 5,3 6,0 30 16 52 28 WNW 1030,3 17 0 0,0
09.12.2018 23:00:00 6,5 5,1 5,7 29 16 48 26 W 1029,9 16 0 0,0
09.12.2018 22:00:00 6,5 5,1 5,6 32 18 57 31 W 1029,6 16 0 0,0
09.12.2018 21:00:00 6,5 5,3 5,8 39 21 67 36 W 1028,8 16 0 0,0
09.12.2018 20:00:00 6,9 5,4 5,9 42 23 72 39 W 1027,8 17 0 0,2
09.12.2018 19:00:00 6,6 5,2 5,8 37 20 64 35 W 1027,4 12 0 0,0
09.12.2018 18:00:00 6,7 5,0 6,2 31 17 50 27 W 1026,7 17 0 0,0
09.12.2018 17:00:00 7,0 5,3 6,3 34 18 70 38 W 1026,0 18 13 0,4
09.12.2018 16:00:00 7,3 6,6 6,8 36 19 53 28 W 1025,2 6 2 0,6
09.12.2018 15:00:00 7,3 6,7 6,2 31 17 63 34 WNW 1024,8 16 2 1,8
09.12.2018 14:00:00 7,9 6,8 7,4 37 20 61 33 W 1023,9 6 0 0,6
09.12.2018 13:00:00 8,6 7,1 7,8 35 19 79 43 W 1023,9 12 0 0,2
09.12.2018 12:00:00 9,0 7,0 8,8 39 21 67 36 W 1023,8 12 7 0,0
09.12.2018 11:00:00 8,7 7,1 8,6 37 20 61 33 W 1024,2 11 0 0,0
09.12.2018 10:00:00 8,5 7,1 7,6 36 19 67 36 W 1023,8 16 0 0,4
09.12.2018 09:00:00 8,4 7,2 7,7 28 15 44 24 W 1024,0 14 0 0,0
09.12.2018 08:00:00 8,1 7,7 7,7 28 15 53 28 W 1024,3 6 0 2,6
09.12.2018 07:00:00 8,5 8,4 8,0 22 12 54 29 WNW 1023,8 1,7 0 2,6
09.12.2018 06:00:00 9,0 8,1 8,4 32 17 54 29 W 1023,4 11 0 0,0
09.12.2018 05:00:00 8,9 7,8 8,1 36 20 59 32 W 1023,5 59 0 0,0
09.12.2018 04:00:00 8,3 8,0 7,7 29 16 48 26 WSW 1023,7 14 0 0,2
09.12.2018 03:00:00 8,0 7,7 7,7 23 12 48 26 WSW 1024,1 3,6 0 0,2
09.12.2018 02:00:00 8,0 7,9 7,7 28 15 44 24 W 1024,3 3,8 0 0,2
09.12.2018 01:00:00 7,9 7,8 7,0 25 13 40 22 W 1024,6 5 0 0,2
09.12.2018 00:00:00 7,4 6,7 6,9 22 12 42 23 WSW 1024,8 4,0 0 0,0
08.12.2018 23:00:00 7,4 6,3 6,8 23 12 36 19 WSW 1025,1 10 0 0,2
08.12.2018 22:00:00 7,6 6,2 7,1 18 10 33 18 WSW 1025,2 14 0 0,0
08.12.2018 21:00:00 7,8 6,7 7,3 17 9 34 18 W 1025,4 16 0 0,0
08.12.2018 20:00:00 7,8 7,0 7,0 16 9 26 14 WSW 1025,5 10 0 0,0
08.12.2018 19:00:00 7,3 6,9 7,0 16 9 27 15 WSW 1025,7 17 0 0,4
08.12.2018 18:00:00 7,5 6,4 7,0 21 11 35 19 W 1025,9 2,8 0 0,0
08.12.2018 17:00:00 7,7 6,2 7,1 20 11 36 20 WSW 1026,0 16 6 0,0
08.12.2018 16:00:00 8,1 5,7 8,1 22 12 44 24 WSW 1026,1 20 5 0,0
08.12.2018 15:00:00 8,1 5,4 8,2 26 14 47 25 W 1026,4 40 0 0,0
08.12.2018 14:00:00 8,0 5,5 7,9 34 19 50 27 W 1026,9 39 9 0,0
08.12.2018 13:00:00 7,5 5,6 7,4 28 15 46 25 W 1027,3 19 0 0,0
08.12.2018 12:00:00 6,8 5,6 7,1 29 16 46 25 W 1027,7 19 3 0,0
08.12.2018 11:00:00 6,4 5,7 6,3 27 15 45 25 W 1028,1 18 0 0,0
08.12.2018 10:00:00 5,9 5,5 5,2 22 12 32 18 W 1027,8 16 0 0,0
08.12.2018 09:00:00 5,2 4,8 4,5 19 11 32 17 W 1027,6 13 0 0,0
08.12.2018 08:00:00 4,8 4,2 4,4 22 12 34 19 W 1027,8 18 0 0,0
08.12.2018 07:00:00 5,1 4,2 4,8 23 13 36 20 W 1027,1 18 0 0,0
08.12.2018 06:00:00 5,4 4,7 5,0 20 11 33 18 W 1026,5 13 0 0,0
08.12.2018 05:00:00 5,3 4,6 4,7 21 12 41 22 W 1026,5 14 0 0,0
08.12.2018 04:00:00 5,3 4,3 4,2 25 13 44 24 WNW 1026,4 18 0 0,0
08.12.2018 03:00:00 5,3 4,3 4,6 32 17 44 24 WNW 1026,1 18 0 0,0
08.12.2018 02:00:00 5,7 4,7 5,0 26 14 41 22 W 1025,6 16 0 0,0
08.12.2018 01:00:00 5,6 4,7 4,9 22 12 41 22 WNW 1026,0 17 0 0,0
08.12.2018 00:00:00 5,4 4,4 4,3 24 13 44 24 WNW 1025,9 45 0 0,0
07.12.2018 23:00:00 5,3 4,1 4,6 27 15 44 24 WNW 1025,5 49 0 0,0
07.12.2018 22:00:00 5,8 4,6 5,2 28 15 44 24 WNW 1024,8 55 0 0,0
07.12.2018 21:00:00 6,3 5,6 5,7 24 13 52 28 WNW 1024,2 11 0 0,4
07.12.2018 20:00:00 7,4 5,4 6,3 32 17 63 34 W 1023,3 60 0 1,6
07.12.2018 19:00:00 8,5 8,2 7,4 28 15 44 24 W 1021,9 5 0 0,6
07.12.2018 18:00:00 7,7 7,3 7,1 20 11 30 16 SW 1021,8 5 0 0,0
07.12.2018 17:00:00 7,9 6,5 7,2 22 12 35 19 SW 1021,7 7 0 0,2
07.12.2018 16:00:00 8,7 5,8 8,6 16 9 27 15 SSW 1021,5 56 0 0,0
07.12.2018 15:00:00 9,1 5,6 9,2 22 12 32 18 WSW 1022,0 49 0 0,0
07.12.2018 14:00:00 9,4 6,1 9,7 16 9 26 14 W 1022,3 41 0 0,0
07.12.2018 13:00:00 9,0 6,8 8,8 15 8 23 12 WSW 1023,3 55 0 0,0
07.12.2018 12:00:00 8,7 6,3 8,8 13 7 26 14 W 1024,7 60 0 0,0
07.12.2018 11:00:00 8,5 6,5 8,6 14 7 23 12 WSW 1025,4 45 0 0,0
07.12.2018 10:00:00 8,1 7,7 7,9 9 5 16 9 WSW 1025,4 30 0 0,0
07.12.2018 09:00:00 7,9 7,8 7,7 13 7 18 10 WSW 1025,2 20 0 0,0
07.12.2018 08:00:00 7,9 7,8 7,6 9 5 15 8 WSW 1025,0 39 0 0,0
07.12.2018 07:00:00 7,8 7,7 7,5 4 2 8 5 SW 1025,3 2,9 0 0,2
07.12.2018 06:00:00 7,8 7,7 7,0 7 4 13 7 WSW 1025,7 3,1 0 0,0
07.12.2018 05:00:00 7,7 7,4 6,8 5 3 15 8 SW 1026,2 14 0 0,2
07.12.2018 04:00:00 7,9 7,8 6,9 10 6 14 8 WSW 1026,7 20 0 0,0
07.12.2018 03:00:00 8,1 8,0 7,6 8 5 14 8 WSW 1027,1 2,5 0 0,6
07.12.2018 02:00:00 8,0 7,6 7,5 5 3 18 10 WNW 1027,1 45 0 0,0
07.12.2018 01:00:00 8,2 8,1 7,9 15 8 26 14 WNW 1027,6 20 0 0,0
07.12.2018 00:00:00 8,6 8,3 8,4 18 10 34 18 WNW 1028,2 50 0 0,0
06.12.2018 23:00:00 8,8 8,5 8,6 28 15 37 20 WNW 1028,2 2,7 0 0,0
06.12.2018 22:00:00 9,4 9,1 9,2 13 7 26 14 WNW 1028,2 19 0 0,0
06.12.2018 21:00:00 9,5 9,4 9,1 18 10 26 14 WNW 1028,4 7 0 0,4
06.12.2018 20:00:00 9,8 9,3 9,3 16 8 29 15 WNW 1028,3 10 0 0,0
06.12.2018 19:00:00 9,7 9,2 9,4 21 12 35 19 W 1028,3 60 0 0,0
06.12.2018 18:00:00 9,8 9,5 9,5 21 11 32 17 W 1027,6 2,7 0 0,2
06.12.2018 17:00:00 9,9 9,4 9,6 23 13 36 19 W 1027,0 10 0 0,0
06.12.2018 16:00:00 10,0 9,7 9,8 26 14 42 23 W 1026,5 3,9 0 0,4
06.12.2018 15:00:00 10,3 10,0 10,1 23 12 43 23 W 1026,4 1,9 0 0,2
06.12.2018 14:00:00 10,4 9,8 10,3 24 13 45 25 W 1026,4 20 0 0,2
06.12.2018 13:00:00 10,4 10,1 10,3 24 13 42 23 W 1026,6 4,6 3 0,2
06.12.2018 12:00:00 10,1 9,8 9,8 20 11 32 18 W 1026,6 4,5 0 0,0
06.12.2018 11:00:00 9,8 9,7 9,4 23 12 36 19 W 1027,2 4,4 0 0,0
06.12.2018 10:00:00 9,5 9,4 9,2 24 13 45 24 W 1026,7 8 0 0,0
06.12.2018 09:00:00 9,4 9,3 9,1 26 14 39 21 W 1026,2 3,5 0 0,2
06.12.2018 08:00:00 9,4 9,1 9,1 21 11 34 18 W 1025,6 2,6 0 0,0
06.12.2018 07:00:00 9,5 9,0 9,0 23 12 42 23 W 1025,1 8 0 0,0
06.12.2018 06:00:00 9,6 8,8 8,9 27 15 42 23 W 1025,1 13 0 0,0
06.12.2018 05:00:00 9,4 8,3 8,9 22 12 36 19 W 1024,7 16 0 0,0
06.12.2018 04:00:00 9,7 9,1 9,2 15 8 31 17 W 1024,5 9 0 0,0
06.12.2018 03:00:00 9,8 9,2 9,5 22 12 42 23 W 1025,2 16 0 0,0
06.12.2018 02:00:00 9,8 9,3 9,6 14 7 34 18 W 1025,1 18 0 0,4
06.12.2018 01:00:00 10,0 9,7 9,7 19 11 31 17 W 1025,5 3,4 0 0,6
06.12.2018 00:00:00 10,4 9,2 9,7 13 7 22 12 W 1025,6 7 0 0,0

tt = temperature
td = dewpoint
tt 5cm = temperature 5cm
ff = wind speed
fx = gusts
dd = wind direction
ppp = reduced air pressure
vv = visibility
sd = sunshine duration
rr = precipitation

Next stations